Location: Newark
(55.7681°N, 37.7103°E)
Time: 23:36:01
(UTC+00:00)

N. Korean satellite - Pass Details

Date: 25 October 2019
Orbit: 456 x 506 km, 97.2° (Epoch: 14 November)

Event Time Altitude Azimuth Distance (km) Brightness Sun altitude
Rises 02:36:38 0° 24° (NNE) 2,571 10.6 -15.0°
Reaches altitude 10° 02:39:06 10° 41° (NE) 1,694 9.9 -14.7°
Maximum altitude 02:41:55 21° 92° (E) 1,174 9.6 -14.3°
Drops below altitude 10° 02:44:44 10° 142° (SE) 1,702 9.9 -13.9°
Sets 02:47:12 0° 159° (SSE) 2,587 10.6 -13.5°
